Zurück zum Katalog

SL-12 R/B(2)

AktivGEO
NORAD 20926·ROCKET BODY·🇷🇺 Russia

Gestartet Nov 3, 1990 von Baikonur Cosmodrome

Loading…

TLE

AktuellSource: Space-Track

Epoche: Sep 14, 2026, 12:46 UTC

1 20926U 90094D   26257.53223538 -.00000166  00000-0  00000+0 0  9997
2 20926  12.4085 335.3917 0033460 159.5097 193.2734  1.00853949132121

Verfolge SL-12 R/B(2) in Echtzeit mit AllMySat

Download on the App Store